Погода в Черемушском

Россия / Архангельская область     61°16′15″N   47°15′49″E
темп.,
°C
ветер,
м/с
пор.,
м/с
влажн.,
%
обл.,
%
осадки,
мм/ч
давл.,
гПа
погр.,
м
25 января, вт
вт2500:00−8юз61687100 0.0 1020555
03:00−7юз61784100 0.0 1018585
06:00−8юз6178196 0.0 1017598
09:00−8ююз61782100 0.0 1015594
12:00−7ююз61691100 0.1 1013643
15:00−7ююз61492100 0.6 1013686
18:00−7ююз51393100 0.6 1012687
21:00−8ююз41194100 1.4 1012594
26 января, ср
ср2600:00−8ююз41094100 0.9 1013486
03:00−9ююз3894100 1.5 1013338
06:00−10ююз3795100 0.3 1013244
09:00−10ююз2695100 0.8 1014222
12:00−9ююз2492100 0.3 1014245
15:00−9ююз249596 0.4 1015160
18:00−14ююз239881 0.1 101535
21:00−15ю229974 0.1 101531
27 января, чт
чт2700:00−17ю1110089 0.1 101522
03:00−19ю1110094 0.1 101526
06:00−19ю2210094 0.1 101535
09:00−19ю2310089 0.1 101453
12:00−13ююз249496 0.0 1013166
15:00−14ю239863 0.1 101361
18:00−16ю2798100 0.0 1013127
21:00−15ю2897100 0.0 1012172
28 января, пт
пт2800:00−15ю3895100 0.0 1011201
03:00−15ю3994100 0.0 1011245
06:00−15ююв31093100 0.0 1010271
09:00−14ююв41192100 0.0 1010319
12:00−12ю41190100 0.0 1010391
15:00−11ююв41190100 0.0 1010444
18:00−11ююв41292100 0.0 1010426
21:00−11ю41192100 0.0 1010449
29 января, сб
сб2900:00−10ю41192100 0.1 1010460
03:00−9ю41093100 0.3 1009440
06:00−9ю41092100 0.1 1009430
09:00−9ююв41092100 0.1 1009409
12:00−8ююв3109190 0.0 1008437
15:00−9ююв389388 0.0 1007318
18:00−10ююв3109593 0.0 1006277
21:00−10ююв3994100 0.1 1004287